Regional Weather Roundup
Issued by NWS

Home | Current Version | Previous Version | Text Only | Print | Product List | Glossary Off
Versions: 1 2 3 4 5 6 7 8 9 10 11 12 13 14 15 16 17 18 19 20 21 22 23 24 25 26 27 28 29 30 31 32 33 34 35 36 37 38 39 40 41 42 43 44 45 46 47 48 49 50

000
ASUS43 KOAX 052110
RWRNE

WEATHER ROUNDUP FOR NEBRASKA
NATIONAL WEATHER SERVICE OMAHA NE
400 PM CDT TUE MAY 05 2015

NOTES: SATELLITE DATA IS BEING USED TO AUGMENT CLOUD COVER ABOVE
       12000 FEET.
       "FAIR" INDICATES FEW OR NO CLOUDS BELOW 12,000 FEET WITH NO
       SIGNIFICANT WEATHER AND/OR OBSTRUCTIONS TO VISIBILITY.

  * THESE STATIONS DO NOT REPORT WEATHER SUCH AS RAIN...SNOW OR FOG.

NEZ001>004-019>022-054>056-052200-
NEBRASKA PANHANDLE

CITY           SKY/WX    TMP DP  RH WIND       PRES   REMARKS
SCOTTSBLUFF    CLOUDY    59  50  72 SE17G23   29.91F
ALLIANCE       CLOUDY    57  50  77 SE14      29.92F
CHADRON        CLOUDY    66  51  58 SE14      29.88F
KIMBALL        LGT RAIN  51  50  97 SE13      29.92F
SIDNEY         LGT RAIN  53  51  93 SE10      29.94F FOG
$$

NEZ057>060-069>072-079>082-052200-
SOUTHWEST NEBRASKA

CITY           SKY/WX    TMP DP  RH WIND       PRES   REMARKS
NORTH PLATTE   RAIN      61  59  93 SE5       29.93F
IMPERIAL       LGT RAIN  60  56  86 SE14      29.90F
LEXINGTON      LGT RAIN  65  60  83 S18       29.93R
MCCOOK         CLOUDY    63  58  83 SE15G21   29.91F
OGALLALA       LGT RAIN  57  56  99 E9        29.93F
$$

NEZ005>010-023>029-035>040-094-052200-
NORTH CENTRAL NEBRASKA

CITY           SKY/WX    TMP DP  RH WIND       PRES   REMARKS
VALENTINE      LGT RAIN  61  56  83 SE12      29.97S
AINSWORTH      LGT RAIN  59  58  97 SE8       29.98F
BROKEN BOW     LGT RAIN  67  61  81 E14       29.93F
O`NEILL        CLOUDY    70  60  69 S12       29.98F
ORD            CLOUDY    72  59  63 SE14G22   29.94F
THEDFORD       CLOUDY    59  58  96 E8        29.97F FOG
$$

NEZ041-046>049-061>064-073>077-083>087-052200-
SOUTH CENTRAL NEBRASKA

CITY           SKY/WX    TMP DP  RH WIND       PRES   REMARKS
GRAND ISLAND   CLOUDY    73  53  49 SE24G32   29.96F
AURORA         CLOUDY    75  52  44 SE21G26   29.97F
HASTINGS       PTSUNNY   74  53  48 S21G31    29.95F
HEBRON         PTSUNNY   77  52  41 SE17G25   29.97F
HOLDREGE       CLOUDY    72  51  47 SE22G31   29.92F
KEARNEY *      PTSUNNY   75  54  46 SE26G32   29.93F
YORK           CLOUDY    73  55  53 S15G22    29.98F
$$

NEZ011>018-030>034-042>045-052200-
NORTHEAST NEBRASKA

CITY           SKY/WX    TMP DP  RH WIND       PRES   REMARKS
NORFOLK        PTSUNNY   73  61  65 S13       29.99F
ALBION         CLOUDY    72  60  67 SE12G18   29.98F
BLAIR          CLOUDY    75  58  55 SE8       30.02F
COLUMBUS *     CLOUDY    73  57  56 S16       30.00F
FREMONT        CLOUDY    75  60  58 SE8       30.01F
TEKAMAH        CLOUDY    77  60  55 S13       30.01F
WAYNE          CLOUDY    74  61  63 S14       30.01F
$$

NEZ050>053-065>068-078-088>093-052200-
SOUTHEAST NEBRASKA

CITY           SKY/WX    TMP DP  RH WIND       PRES   REMARKS
LINCOLN        CLOUDY    75  59  57 S13       30.00F
OMAHA EPPLEY   CLOUDY    77  59  53 S14       30.01F
BEATRICE       CLOUDY    76  57  50 S18       30.00F
FALLS CITY     CLOUDY    77  59  53 S10       30.02F
NEBRASKA CITY  CLOUDY    74  53  47 S14G20    30.02F
PLATTSMOUTH    CLOUDY    76  59  57 SE13      30.02F
$$

NEZ044-045-051>053-067-052200-
OMAHA AREA

CITY           SKY/WX    TMP DP  RH WIND       PRES   REMARKS
OMAHA EPPLEY   CLOUDY    77  59  53 S14       30.01F
BLAIR          CLOUDY    75  58  55 SE8       30.02F
FREMONT        CLOUDY    75  60  58 SE8       30.01F
MILLARD        CLOUDY    76  61  60 SE9       30.01F
OFFUTT AFB     CLOUDY    76  61  59 S13       30.01F
PLATTSMOUTH    CLOUDY    76  59  57 SE13      30.02F
$$


USA.gov is the U.S. government's official web portal to all federal, state and local government web resources and services.